Regional Weather Roundup
Issued by NWS

Home | Current Version | Previous Version | Text Only | Print | Product List | Glossary Off
Versions: 1 2 3 4 5 6 7 8 9 10 11 12 13 14 15 16 17 18 19 20 21 22 23 24 25 26 27 28 29 30 31 32 33 34 35 36 37 38 39 40 41 42 43 44 45 46 47 48

000
ASUS45 KCYS 191810
RWRWY

WYOMING REGIONAL WEATHER ROUNDUP
NATIONAL WEATHER SERVICE CHEYENNE WY
1100 AM MST FRI DEC 19 2014

NOTE:  "FAIR" INDICATES FEW OR NO CLOUDS BELOW 12,000 FEET
WITH NO SIGNIFICANT WEATHER AND/OR OBSTRUCTIONS TO VISIBILITY.

WYZ001-191900-
YELLOWSTONE NATIONAL PARK

CITY           SKY/WX    TMP DP  RH WIND       PRES   REMARKS
LK YELLOWSTONE   N/A     26  21  81 VRB5      30.07S WCI  20
6HR MIN TEMP:  23; 6HR MAX TEMP:  27; 6HR PCP:  0.02;

W YELLOWSTONE  NOT AVBL

$$
WYZ002>013-054>058-071-098>099-191900-
NORTHERN WYOMING

CITY           SKY/WX    TMP DP  RH WIND       PRES   REMARKS
JACKSON        PTSUNNY   30  27  86 S7        30.11S WCI  23
CODY           FAIR      43  23  45 SW9G21    29.94F
GREYBULL       PTSUNNY   17  12  80 CALM      30.04F
6HR MIN TEMP:   4; 6HR MAX TEMP:  17;

WORLAND        FAIR       9   5  84 W5        30.02F WCI   1
6HR MIN TEMP:  -3; 6HR MAX TEMP:  11;

SHERIDAN       FAIR      39  19  44 CALM      29.94F
6HR MIN TEMP:  19; 6HR MAX TEMP:  40;

BUFFALO        FAIR      42  16  34 CALM      29.95F
6HR MIN TEMP:  23; 6HR MAX TEMP:  43;

GILLETTE       FAIR      38  18  44 SW13G21   29.95F WCI  30
6HR MIN TEMP:  15; 6HR MAX TEMP:  38;

HULETT           N/A    N/A N/A N/A MISG        N/A
NEWCASTLE      FAIR      30  21  69 CALM      30.02F

$$
WYZ014>020-022>026-101>103-191900-
CENTRAL WYOMING

CITY           SKY/WX    TMP DP  RH WIND       PRES   REMARKS
BIG PINEY      FAIR      24  18  77 CALM      30.14S
6HR MIN TEMP:   9; 6HR MAX TEMP:  24;

PINEDALE       MOCLDY    27  21  80 CALM      30.13F
DUBOIS         MOCLDY    32  19  59 NW21G32   30.02S WCI  20
LANDER         FAIR       7   4  87 N6        30.03F WCI  -3
6HR MIN TEMP:  -6; 6HR MAX TEMP:  10;

RIVERTON       FAIR      15  10  80 NE3       30.05F
6HR MIN TEMP:   3; 6HR MAX TEMP:  15; 6HR PCP: TRACE;

CASPER         FAIR      29  19  66 SW20      30.03F WCI  16
6HR MIN TEMP:  22; 6HR MAX TEMP:  29;

DOUGLAS        FAIR      38  19  46 NW5       30.02F WCI  34
6HR MIN TEMP:  13; 6HR MAX TEMP:  38;


$$
WYZ021-027>030-104>119-191900-
SOUTHERN WYOMING

CITY           SKY/WX    TMP DP  RH WIND       PRES   REMARKS
EVANSTON       FAIR      29  22  75 SW14      30.14F WCI  18
6HR MIN TEMP:  20; 6HR MAX TEMP:  29;

KEMMERER       FAIR      30  21  69 W14       30.14S WCI  20
FORT BRIDGER   FAIR      36  21  54 SW15G21   30.16F WCI  27
ROCK SPRINGS   CLOUDY    31  19  61 SW15      30.14F WCI  20
6HR MIN TEMP:  19; 6HR MAX TEMP:  31;

DIXON          CLOUDY   N/A N/A N/A CALM      30.24S
RAWLINS        FAIR      27  19  72 W13       30.11S WCI  16
6HR MIN TEMP:  20; 6HR MAX TEMP:  27;

SARATOGA       FAIR      28  19  69 SW8       30.13F WCI  20
LARAMIE        FAIR      28  16  60 SW20      30.05F WCI  15
6HR MIN TEMP:  17; 6HR MAX TEMP:  28;

CHEYENNE       FAIR      38  13  35 W25G35    30.05S WCI  27
6HR MIN TEMP:  21; 6HR MAX TEMP:  38;

TORRINGTON     FAIR     N/A N/A N/A CALM      30.02F
PINE BLUFFS    FAIR      41  18  38 W23G29    30.05F

$$


USA.gov is the U.S. government's official web portal to all federal, state and local government web resources and services.